Flag for Germany Weather past 2 weeks in Troisdorf, North Rhine-Westphalia, Germany

Now
52 °F

Fog.


Feels Like: 51 °F
Forecast: 66 / 90 °F
Wind: 3 mph from Southeast

Location: Koeln / Bonn

Current Time: Aug 5, 2015 at 7:25:37 AM

Latest Report: Aug 5, 2015 at 6:20 AM


Visibility: N/A

Pressure: 30.09 "Hg

Humidity: 94%

Dew point: 50 °F

Location of TroisdorfLocation

Historic Weather in Troisdorf — Graph

°F

Troisdorf temperature yesterday

Maximum temperature yesterday: 77 °F (at 9:50 AM)
Minimum temperature yesterday: 59 °F (at 9:50 PM)
Average temperature yesterday: 68 °F

Past Weeks' High & Low Weather Summary

 TemperatureHumidityPressure
High91 °F (Aug 3, 3:50 PM)100% (Jul 31, 4:20 AM)30.15 "Hg (Jul 31, 4:20 AM)
Low48 °F (Jul 26, 3:50 AM)20% (Aug 3, 5:20 PM)29.56 "Hg (Jul 25, 6:50 AM)
Average64 °F66%29.92 "Hg
* Reported Jul 21 5:20 AM — Aug 5 5:50 AM, Troisdorf, Weather by CustomWeather, © 2015

Note: Actual official high and low records may vary slightly from our data, if they occured in-between our weather recording intervals... More about our weather records

Advertising

Troisdorf weather history for previous 24 hours

 ConditionsComfort  
Time TempWeatherWind HumidityBarometerVisibility
5:50 AM
Wed, Aug 5
54 °FFog.3 mph94%30.09 "HgN/A
5:20 AM54 °FFog.2 mph94%30.12 "HgN/A
4:50 AM54 °FFog.3 mph94%30.09 "HgN/A
4:20 AM52 °FFog.2 mph94%30.09 "HgN/A
3:50 AM52 °FFog.5 mph94%30.09 "HgN/A
3:20 AM52 °FFog.3 mph94%30.09 "HgN/A
2:50 AM54 °FFog.5 mph88%30.09 "HgN/A
2:20 AM57 °FFog.2 mph88%30.09 "HgN/A
1:50 AM55 °FFog.2 mph94%30.09 "HgN/A
1:20 AM57 °FFog.2 mph94%30.09 "HgN/A
12:20 AM57 °FFog.2 mph88%30.09 "HgN/A
11:50 PM
Tue, Aug 4
59 °FFog.3 mph88%30.09 "HgN/A
11:20 PM59 °FFog.5 mph88%30.07 "HgN/A
10:50 PM59 °FClear.6 mph94%30.07 "Hg10 mi
10:20 PM59 °FPassing clouds.6 mph94%30.07 "HgN/A
9:50 PM59 °FPassing clouds.6 mph94%30.07 "HgN/A
9:20 PM61 °FFog.5 mph88%30.07 "HgN/A
8:50 PM63 °FScattered clouds.2 mph83%30.07 "HgN/A
8:20 PM64 °FScattered clouds.3 mph78%30.04 "HgN/A
7:50 PM64 °FScattered clouds.2 mph78%30.04 "HgN/A
7:20 PM64 °FScattered clouds.5 mph73%30.04 "HgN/A
6:50 PM64 °FScattered clouds.9 mph73%30.04 "HgN/A
6:20 PM64 °FScattered clouds.7 mph83%30.04 "HgN/A
5:50 PM63 °FLight rain. Broken clouds.3 mph88%30.04 "HgN/A
5:20 PM63 °FLight rain. Partly sunny.8 mph83%30.04 "HgN/A
4:50 PM63 °FLight rain. More clouds than sun.10 mph83%30.01 "HgN/A
4:20 PM63 °FLight rain. More clouds than sun.12 mph88%30.01 "HgN/A
3:50 PM63 °FRain. Cloudy.16 mph88%29.98 "Hg5 mi
3:20 PM68 °FLight rain. Broken clouds.10 mph83%29.95 "HgN/A
2:50 PM68 °FLight rain. Broken clouds.3 mph88%29.95 "Hg6 mi
2:20 PM68 °FBroken clouds.3 mph88%29.95 "HgN/A
1:50 PM68 °FBroken clouds.3 mph88%29.95 "HgN/A
1:20 PM66 °FLight rain. Broken clouds.2 mph88%29.95 "HgN/A
12:50 PM66 °FRain. Broken clouds.6 mph88%29.95 "HgN/A
12:20 PM68 °FLight rain. Broken clouds.2 mph83%29.95 "HgN/A
11:50 AM68 °FLight rain. Broken clouds.5 mph83%29.95 "HgN/A
11:20 AM70 °FRain. Broken clouds.8 mph73%29.95 "Hg5 mi
10:50 AM75 °FRain. Broken clouds.13 mph57%29.92 "HgN/A
10:20 AM77 °FLight rain. Broken clouds.6 mph47%29.86 "HgN/A
9:50 AM77 °FScattered showers. Broken clouds.7 mph44%29.86 "HgN/A
9:20 AM75 °FSunny.5 mph47%29.86 "Hg10 mi
8:50 AM75 °FScattered showers. Broken clouds.5 mph47%29.86 "HgN/A
8:20 AM75 °FSprinkles. Broken clouds.5 mph44%29.86 "HgN/A
7:50 AM73 °FSprinkles. Broken clouds.2 mph47%29.86 "HgN/A
7:20 AM73 °FSprinkles. Broken clouds.6 mph47%29.83 "HgN/A
Weather by CustomWeather, © 2015

See weather overviewHow to use our weather pages